Location: New Town
(33.2710°N, 90.7534°W)
Time: 01:55:17
(UTC+00:00)

A-11 Canister half - Visible Passes

Search period start: 12 May 2021 00:00
Search period end: 22 May 2021 00:00
Orbit: 1514 x 1685 km, 47.2° (Epoch: 11 May)

Date Brightness Start Highest point End Pass type
(mag) Time Alt. Az. Time Alt. Az. Time Alt. Az.
12 May 9.4 02:20:07 10° NW 02:29:17 56° NNE 02:35:57 21° E visible
12 May 9.2 04:25:09 10° WNW 04:34:08 54° SW 04:34:08 54° SW visible
13 May 9.4 01:57:12 10° NW 02:06:18 54° NNE 02:14:10 16° E visible
13 May 9.1 04:02:12 10° WNW 04:11:22 58° SW 04:12:21 56° SSW visible
14 May 9.5 01:34:17 10° NW 01:43:19 52° NNE 01:52:24 11° E visible
14 May 9.1 03:39:15 10° WNW 03:48:28 62° SW 03:50:35 52° S visible
14 May 10.9 05:48:03 10° W 05:48:46 11° W 05:48:46 11° W visible
15 May 9.6 01:11:23 10° NW 01:20:21 49° NNE 01:29:31 10° E visible
15 May 9.1 03:16:19 10° WNW 03:25:34 66° SW 03:28:52 44° SSE visible
15 May 10.7 05:24:29 10° W 05:27:03 14° WSW 05:27:03 14° WSW visible
16 May 9.0 02:53:24 10° WNW 03:02:40 70° SW 03:07:11 36° SSE visible
16 May 10.6 05:01:03 10° W 05:05:23 16° WSW 05:05:23 16° WSW visible
17 May 9.0 02:30:28 10° NW 02:39:47 74° SW 02:45:33 28° SE visible
17 May 10.5 04:37:43 10° W 04:43:40 18° SW 04:43:45 18° SW visible
18 May 9.0 02:07:33 10° NW 02:16:52 78° SW 02:23:57 21° SE visible
18 May 10.4 04:14:28 10° W 04:20:48 20° SW 04:22:10 20° SW visible
19 May 9.0 01:44:38 10° NW 01:53:58 83° SW 02:02:25 15° SE visible
19 May 10.3 03:51:15 10° W 03:57:57 22° SW 04:00:37 20° SSW visible
20 May 9.1 01:21:43 10° NW 01:31:03 87° SW 01:40:38 10° SE visible
20 May 10.3 03:28:05 10° WNW 03:35:07 24° SW 03:39:06 18° SSW visible
21 May 10.3 03:04:57 10° WNW 03:12:16 26° SW 03:17:40 16° S visible
